Time,TemperatureF,DewpointF,PressureIn,WindDirection,WindDirectionDegrees,WindSpeedMPH,WindSpeedGustMPH,Humidity,HourlyPrecipIn,Conditions,Clouds,dailyrainin,SoftwareType,DateUTC
2013-04-03 00:00:00,53.7,51.1,30.10,WNW,296,0.0,0.0,91,0.00,,---,0.00,VWS V14.01,2013-04-03 07:00:00,
2013-04-03 00:05:00,53.8,51.5,30.10,WNW,296,0.0,1.0,92,0.00,,---,0.00,VWS V14.01,2013-04-03 07:05:00,
2013-04-03 00:10:00,53.7,51.1,30.10,NW,311,0.0,1.0,91,0.00,,---,0.00,VWS V14.01,2013-04-03 07:10:00,
2013-04-03 00:15:00,53.7,51.4,30.10,NW,311,0.0,1.0,92,0.00,,---,0.00,VWS V14.01,2013-04-03 07:15:00,
2013-04-03 00:20:00,53.5,51.2,30.10,NW,311,0.0,1.0,92,0.00,,---,0.00,VWS V14.01,2013-04-03 07:20:00,
2013-04-03 00:25:00,53.5,51.2,30.09,NW,311,0.0,1.0,92,0.00,,---,0.00,VWS V14.01,2013-04-03 07:25:00,
2013-04-03 00:30:00,53.5,51.2,30.09,NW,311,0.0,0.0,92,0.00,,---,0.00,VWS V14.01,2013-04-03 07:30:00,
2013-04-03 00:35:00,53.5,51.5,30.09,NW,311,0.0,1.0,93,0.00,,---,0.00,VWS V14.01,2013-04-03 07:35:00,
2013-04-03 00:40:00,53.5,51.5,30.10,NW,311,0.0,1.0,93,0.00,,---,0.00,VWS V14.01,2013-04-03 07:40:00,
2013-04-03 00:45:00,53.5,51.5,30.10,NW,311,0.0,1.0,93,0.00,,---,0.00,VWS V14.01,2013-04-03 07:45:00,
2013-04-03 00:50:00,53.4,51.4,30.10,NW,311,0.0,1.0,93,0.00,,---,0.00,VWS V14.01,2013-04-03 07:50:00,
2013-04-03 00:55:00,53.3,51.3,30.10,NW,311,0.0,1.0,93,0.00,,---,0.00,VWS V14.01,2013-04-03 07:55:00,
2013-04-03 01:00:00,53.5,51.8,30.10,NW,311,0.0,0.0,94,0.00,,---,0.00,VWS V14.01,2013-04-03 08:00:00,
2013-04-03 01:05:00,54.1,52.4,30.10,NW,311,0.0,1.0,94,0.00,,---,0.00,VWS V14.01,2013-04-03 08:05:00,
2013-04-03 01:10:00,53.9,51.9,30.10,NW,311,0.0,1.0,93,0.00,,---,0.00,VWS V14.01,2013-04-03 08:10:00,
2013-04-03 01:15:00,53.3,51.3,30.10,NW,311,0.0,1.0,93,0.00,,---,0.00,VWS V14.01,2013-04-03 08:15:00,
2013-04-03 01:20:00,53.4,51.7,30.10,NW,311,0.0,1.0,94,0.00,,---,0.00,VWS V14.01,2013-04-03 08:20:00,
2013-04-03 01:25:00,53.5,51.8,30.10,NW,311,0.0,1.0,94,0.00,,---,0.00,VWS V14.01,2013-04-03 08:25:00,
2013-04-03 01:30:00,53.1,51.1,30.10,NW,311,0.0,0.0,93,0.00,,---,0.00,VWS V14.01,2013-04-03 08:30:00,
2013-04-03 01:35:00,52.8,50.8,30.10,NW,311,0.0,0.0,93,0.00,,---,0.00,VWS V14.01,2013-04-03 08:35:00,
2013-04-03 01:40:00,52.5,50.5,30.10,NW,311,0.0,0.0,93,0.00,,---,0.00,VWS V14.01,2013-04-03 08:40:00,
2013-04-03 01:45:00,52.5,50.8,30.10,NW,311,0.0,0.0,94,0.00,,---,0.00,VWS V14.01,2013-04-03 08:45:00,
2013-04-03 01:50:00,52.4,50.7,30.10,NW,311,0.0,0.0,94,0.00,,---,0.00,VWS V14.01,2013-04-03 08:50:00,
2013-04-03 01:55:00,52.1,50.1,30.10,NW,311,0.0,0.0,93,0.00,,---,0.00,VWS V14.01,2013-04-03 08:55:00,
2013-04-03 02:00:00,51.5,49.3,30.10,NW,311,0.0,0.0,92,0.00,,---,0.00,VWS V14.01,2013-04-03 09:00:00,
2013-04-03 02:05:00,51.3,49.3,30.10,NW,311,0.0,0.0,93,0.00,,---,0.00,VWS V14.01,2013-04-03 09:05:00,
2013-04-03 02:10:00,51.5,49.8,30.10,NW,311,0.0,0.0,94,0.00,,---,0.00,VWS V14.01,2013-04-03 09:10:00,
2013-04-03 02:15:00,51.7,50.0,30.09,NW,311,0.0,0.0,94,0.00,,---,0.00,VWS V14.01,2013-04-03 09:15:00,
2013-04-03 02:20:00,51.9,50.5,30.10,NW,311,0.0,0.0,95,0.00,,---,0.00,VWS V14.01,2013-04-03 09:20:00,
2013-04-03 02:25:00,52.0,50.6,30.10,NW,311,0.0,0.0,95,0.00,,---,0.00,VWS V14.01,2013-04-03 09:25:00,
2013-04-03 02:30:00,52.0,50.6,30.09,NW,311,0.0,0.0,95,0.00,,---,0.00,VWS V14.01,2013-04-03 09:30:00,
2013-04-03 02:35:00,51.9,50.5,30.10,NW,311,0.0,0.0,95,0.00,,---,0.00,VWS V14.01,2013-04-03 09:35:00,
2013-04-03 02:40:00,52.3,50.9,30.10,NW,311,0.0,0.0,95,0.00,,---,0.00,VWS V14.01,2013-04-03 09:40:00,
2013-04-03 02:45:00,52.5,51.1,30.10,NW,311,0.0,0.0,95,0.00,,---,0.00,VWS V14.01,2013-04-03 09:45:00,
2013-04-03 02:50:00,52.5,51.1,30.10,NW,311,0.0,0.0,95,0.00,,---,0.00,VWS V14.01,2013-04-03 09:50:00,
2013-04-03 02:55:00,52.6,51.2,30.09,NW,311,0.0,0.0,95,0.00,,---,0.00,VWS V14.01,2013-04-03 09:55:00,
2013-04-03 03:00:00,52.6,51.2,30.09,NW,311,0.0,0.0,95,0.00,,---,0.00,VWS V14.01,2013-04-03 10:00:00,
2013-04-03 03:05:00,52.6,51.2,30.10,NW,311,0.0,0.0,95,0.00,,---,0.00,VWS V14.01,2013-04-03 10:05:00,
2013-04-03 03:10:00,52.6,51.2,30.09,NW,311,0.0,0.0,95,0.00,,---,0.00,VWS V14.01,2013-04-03 10:10:00,
2013-04-03 03:15:00,52.7,51.3,30.09,NW,311,0.0,0.0,95,0.00,,---,0.00,VWS V14.01,2013-04-03 10:15:00,
2013-04-03 03:20:00,52.8,51.7,30.09,NW,311,0.0,0.0,96,0.00,,---,0.00,VWS V14.01,2013-04-03 10:20:00,
2013-04-03 03:25:00,53.0,51.9,30.09,NW,311,0.0,0.0,96,0.00,,---,0.00,VWS V14.01,2013-04-03 10:25:00,
2013-04-03 03:30:00,53.0,51.9,30.09,NW,311,0.0,0.0,96,0.00,,---,0.00,VWS V14.01,2013-04-03 10:30:00,
2013-04-03 03:35:00,53.0,51.9,30.09,NW,311,0.0,0.0,96,0.00,,---,0.00,VWS V14.01,2013-04-03 10:35:00,
2013-04-03 03:40:00,52.9,51.5,30.09,NW,311,0.0,0.0,95,0.00,,---,0.00,VWS V14.01,2013-04-03 10:40:00,
2013-04-03 03:45:00,53.0,51.9,30.09,NW,311,0.0,1.0,96,0.00,,---,0.00,VWS V14.01,2013-04-03 10:45:00,
2013-04-03 03:50:00,53.2,52.1,30.09,ESE,104,0.0,1.0,96,0.00,,---,0.00,VWS V14.01,2013-04-03 10:50:00,
2013-04-03 03:55:00,53.2,52.1,30.09,ESE,104,0.0,1.0,96,0.00,,---,0.00,VWS V14.01,2013-04-03 10:55:00,
2013-04-03 04:00:00,53.2,51.8,30.09,ESE,104,0.0,0.0,95,0.00,,---,0.00,VWS V14.01,2013-04-03 11:00:00,
2013-04-03 04:05:00,53.2,51.8,30.09,ESE,104,0.0,1.0,95,0.00,,---,0.00,VWS V14.01,2013-04-03 11:05:00,
2013-04-03 04:10:00,53.2,51.8,30.09,ESE,105,0.0,1.0,95,0.00,,---,0.00,VWS V14.01,2013-04-03 11:10:00,
2013-04-03 04:15:00,53.2,51.8,30.09,ESE,104,0.0,1.0,95,0.00,,---,0.00,VWS V14.01,2013-04-03 11:15:00,
2013-04-03 04:20:00,53.1,51.7,30.09,ESE,104,0.0,1.0,95,0.00,,---,0.00,VWS V14.01,2013-04-03 11:20:00,
2013-04-03 04:25:00,53.0,51.6,30.09,ESE,104,0.0,1.0,95,0.00,,---,0.00,VWS V14.01,2013-04-03 11:25:00,
2013-04-03 04:30:00,53.0,51.9,30.09,ESE,104,0.0,0.0,96,0.00,,---,0.00,VWS V14.01,2013-04-03 11:30:00,
2013-04-03 04:35:00,53.0,51.9,30.09,ESE,104,0.0,0.0,96,0.00,,---,0.00,VWS V14.01,2013-04-03 11:35:00,
2013-04-03 04:40:00,53.0,51.9,30.09,ESE,104,0.0,0.0,96,0.00,,---,0.00,VWS V14.01,2013-04-03 11:40:00,
2013-04-03 04:45:00,53.0,51.9,30.09,ESE,104,0.0,0.0,96,0.00,,---,0.00,VWS V14.01,2013-04-03 11:45:00,
2013-04-03 04:50:00,53.0,51.9,30.10,ESE,104,0.0,0.0,96,0.00,,---,0.00,VWS V14.01,2013-04-03 11:50:00,
2013-04-03 04:55:00,53.1,52.0,30.10,ESE,104,0.0,0.0,96,0.00,,---,0.00,VWS V14.01,2013-04-03 11:55:00,
2013-04-03 05:00:00,53.2,52.1,30.10,ESE,104,0.0,0.0,96,0.00,,---,0.00,VWS V14.01,2013-04-03 12:00:00,
2013-04-03 05:05:00,53.2,52.1,30.10,ESE,105,0.0,0.0,96,0.00,,---,0.00,VWS V14.01,2013-04-03 12:05:00,
2013-04-03 05:10:00,53.2,52.1,30.10,ESE,104,0.0,0.0,96,0.00,,---,0.00,VWS V14.01,2013-04-03 12:10:00,
2013-04-03 05:15:00,53.2,52.1,30.10,ESE,104,0.0,0.0,96,0.00,,---,0.00,VWS V14.01,2013-04-03 12:15:00,
2013-04-03 05:20:00,53.3,52.2,30.10,ESE,104,0.0,0.0,96,0.00,,---,0.00,VWS V14.01,2013-04-03 12:20:00,
2013-04-03 05:25:00,53.3,52.2,30.10,ESE,104,0.0,0.0,96,0.00,,---,0.00,VWS V14.01,2013-04-03 12:25:00,
2013-04-03 05:30:00,53.4,52.3,30.10,ESE,104,0.0,0.0,96,0.00,,---,0.00,VWS V14.01,2013-04-03 12:30:00,
2013-04-03 05:35:00,53.4,52.3,30.10,ESE,105,0.0,0.0,96,0.00,,---,0.00,VWS V14.01,2013-04-03 12:35:00,
2013-04-03 05:40:00,53.4,52.3,30.10,ESE,104,0.0,0.0,96,0.00,,---,0.00,VWS V14.01,2013-04-03 12:40:00,
2013-04-03 05:45:00,53.4,52.3,30.10,ESE,104,0.0,0.0,96,0.00,,---,0.00,VWS V14.01,2013-04-03 12:45:00,
2013-04-03 05:50:00,53.4,52.3,30.10,ESE,105,0.0,0.0,96,0.00,,---,0.00,VWS V14.01,2013-04-03 12:50:00,
2013-04-03 05:55:00,53.4,52.3,30.10,ESE,104,0.0,0.0,96,0.00,,---,0.00,VWS V14.01,2013-04-03 12:55:00,
2013-04-03 06:00:00,53.4,52.3,30.10,ESE,105,0.0,0.0,96,0.00,,---,0.00,VWS V14.01,2013-04-03 13:00:00,
2013-04-03 06:05:00,53.4,52.3,30.10,ESE,104,0.0,0.0,96,0.00,,---,0.00,VWS V14.01,2013-04-03 13:05:00,
2013-04-03 06:10:00,53.5,52.4,30.11,NE,56,0.0,1.0,96,0.00,,---,0.00,VWS V14.01,2013-04-03 13:10:00,
2013-04-03 06:15:00,53.5,52.4,30.11,NE,56,0.0,1.0,96,0.00,,---,0.00,VWS V14.01,2013-04-03 13:15:00,
2013-04-03 06:20:00,53.5,52.4,30.11,NE,56,0.0,1.0,96,0.00,,---,0.00,VWS V14.01,2013-04-03 13:20:00,
2013-04-03 06:25:00,53.5,52.4,30.11,NE,56,0.0,1.0,96,0.00,,---,0.00,VWS V14.01,2013-04-03 13:25:00,
2013-04-03 06:30:00,53.5,52.4,30.11,NE,56,0.0,0.0,96,0.00,,---,0.00,VWS V14.01,2013-04-03 13:30:00,
2013-04-03 06:35:00,53.5,52.4,30.11,NE,56,0.0,0.0,96,0.00,,---,0.00,VWS V14.01,2013-04-03 13:35:00,
2013-04-03 06:40:00,53.6,52.5,30.11,NE,56,0.0,0.0,96,0.00,,---,0.00,VWS V14.01,2013-04-03 13:40:00,
2013-04-03 06:45:00,53.6,52.5,30.11,NE,56,0.0,0.0,96,0.00,,---,0.00,VWS V14.01,2013-04-03 13:45:00,
2013-04-03 06:50:00,53.6,52.5,30.12,NE,56,0.0,0.0,96,0.00,,---,0.00,VWS V14.01,2013-04-03 13:50:00,
2013-04-03 06:55:00,53.6,52.5,30.12,NNW,343,0.0,0.0,96,0.00,,---,0.00,VWS V14.01,2013-04-03 13:55:00,
2013-04-03 07:00:00,53.6,52.5,30.12,NNW,343,0.0,0.0,96,0.00,,---,0.00,VWS V14.01,2013-04-03 14:00:00,
2013-04-03 07:05:00,53.6,52.5,30.12,NNW,343,0.0,0.0,96,0.00,,---,0.00,VWS V14.01,2013-04-03 14:05:00,
2013-04-03 07:10:00,53.7,52.6,30.12,NNW,343,0.0,0.0,96,0.00,,---,0.00,VWS V14.01,2013-04-03 14:10:00,
2013-04-03 07:15:00,53.8,52.7,30.12,NNW,343,0.0,0.0,96,0.00,,---,0.00,VWS V14.01,2013-04-03 14:15:00,
2013-04-03 07:20:00,53.8,52.7,30.12,NNW,343,0.0,1.0,96,0.00,,---,0.00,VWS V14.01,2013-04-03 14:20:00,
2013-04-03 07:25:00,53.7,52.6,30.12,NNW,343,0.0,1.0,96,0.00,,---,0.00,VWS V14.01,2013-04-03 14:25:00,
2013-04-03 07:30:00,53.9,52.8,30.12,NNE,25,0.0,2.0,96,0.00,,---,0.00,VWS V14.01,2013-04-03 14:30:00,
2013-04-03 07:35:00,53.8,52.4,30.12,NNE,25,0.0,5.0,95,0.00,,---,0.00,VWS V14.01,2013-04-03 14:35:00,
2013-04-03 07:40:00,53.9,52.8,30.13,NNE,24,1.0,5.0,96,0.00,,---,0.00,VWS V14.01,2013-04-03 14:40:00,
2013-04-03 07:45:00,54.1,53.0,30.12,NE,37,0.0,5.0,96,0.00,,---,0.00,VWS V14.01,2013-04-03 14:45:00,
2013-04-03 07:50:00,54.1,53.0,30.13,NE,37,0.0,5.0,96,0.00,,---,0.00,VWS V14.01,2013-04-03 14:50:00,
2013-04-03 07:55:00,54.1,52.7,30.13,NNE,31,1.0,5.0,95,0.00,,---,0.00,VWS V14.01,2013-04-03 14:55:00,
2013-04-03 08:00:00,54.0,52.6,30.13,North,355,0.0,1.0,95,0.00,,---,0.00,VWS V14.01,2013-04-03 15:00:00,
2013-04-03 08:05:00,54.2,52.8,30.13,NE,55,0.0,2.0,95,0.00,,---,0.00,VWS V14.01,2013-04-03 15:05:00,
2013-04-03 08:10:00,54.1,52.4,30.13,NNW,337,0.0,4.0,94,0.00,,---,0.00,VWS V14.01,2013-04-03 15:10:00,
2013-04-03 08:15:00,54.2,52.5,30.13,NNW,337,0.0,4.0,94,0.00,,---,0.00,VWS V14.01,2013-04-03 15:15:00,
2013-04-03 08:20:00,54.4,52.7,30.13,NNW,337,0.0,4.0,94,0.00,,---,0.00,VWS V14.01,2013-04-03 15:20:00,
2013-04-03 08:25:00,54.4,52.4,30.13,NNW,337,0.0,4.0,93,0.00,,---,0.00,VWS V14.01,2013-04-03 15:25:00,
2013-04-03 08:30:00,54.6,52.9,30.13,NNW,337,0.0,1.0,94,0.00,,---,0.00,VWS V14.01,2013-04-03 15:30:00,
2013-04-03 08:35:00,55.0,53.3,30.13,NNW,337,0.0,1.0,94,0.00,,---,0.00,VWS V14.01,2013-04-03 15:35:00,
2013-04-03 08:40:00,55.1,53.1,30.13,WNW,292,0.0,2.0,93,0.00,,---,0.00,VWS V14.01,2013-04-03 15:40:00,
2013-04-03 08:45:00,55.4,53.4,30.13,WNW,292,0.0,2.0,93,0.00,,---,0.00,VWS V14.01,2013-04-03 15:45:00,
2013-04-03 08:50:00,56.1,54.1,30.13,NNW,344,0.0,2.0,93,0.00,,---,0.00,VWS V14.01,2013-04-03 15:50:00,
2013-04-03 08:55:00,57.1,54.5,30.13,SE,132,2.0,2.0,91,0.00,,---,0.00,VWS V14.01,2013-04-03 15:55:00,
2013-04-03 09:00:00,57.4,53.9,30.13,SSE,148,2.0,5.0,88,0.00,,---,0.00,VWS V14.01,2013-04-03 16:00:00,
2013-04-03 09:05:00,57.5,54.0,30.13,SSE,155,0.0,5.0,88,0.00,,---,0.00,VWS V14.01,2013-04-03 16:05:00,
2013-04-03 09:10:00,58.5,54.7,30.13,ENE,74,0.0,5.0,87,0.00,,---,0.00,VWS V14.01,2013-04-03 16:10:00,
2013-04-03 09:15:00,59.1,54.3,30.13,SSE,162,0.0,5.0,84,0.00,,---,0.00,VWS V14.01,2013-04-03 16:15:00,
2013-04-03 09:20:00,59.5,54.3,30.12,ESE,115,0.0,5.0,83,0.00,,---,0.00,VWS V14.01,2013-04-03 16:20:00,
2013-04-03 09:25:00,60.4,54.9,30.13,NE,56,0.0,5.0,82,0.00,,---,0.00,VWS V14.01,2013-04-03 16:25:00,
2013-04-03 09:30:00,61.2,55.0,30.13,NNE,31,0.0,1.0,80,0.00,,---,0.00,VWS V14.01,2013-04-03 16:30:00,
2013-04-03 09:35:00,61.4,55.2,30.12,NNE,21,1.0,2.0,80,0.00,,---,0.00,VWS V14.01,2013-04-03 16:35:00,
2013-04-03 09:41:00,62.3,55.7,30.12,East,98,0.0,2.0,79,0.00,,---,0.00,VWS V14.01,2013-04-03 16:41:00,
2013-04-03 09:46:00,62.8,55.5,30.12,SSE,162,0.0,6.0,77,0.00,,---,0.00,VWS V14.01,2013-04-03 16:46:00,
2013-04-03 09:51:00,63.2,55.9,30.12,South,174,0.0,6.0,77,0.00,,---,0.00,VWS V14.01,2013-04-03 16:51:00,
2013-04-03 09:56:00,63.3,55.2,30.12,ESE,112,0.0,6.0,75,0.00,,---,0.00,VWS V14.01,2013-04-03 16:56:00,
2013-04-03 10:01:00,63.3,55.2,30.12,SSE,154,4.0,5.0,75,0.00,,---,0.00,VWS V14.01,2013-04-03 17:01:00,
2013-04-03 10:06:00,63.2,55.5,30.12,ESE,115,0.0,6.0,76,0.00,,---,0.00,VWS V14.01,2013-04-03 17:06:00,
2013-04-03 10:10:00,63.6,55.5,30.12,SW,218,0.0,7.0,75,0.00,,---,0.00,VWS V14.01,2013-04-03 17:10:00,
2013-04-03 10:15:00,64.0,55.6,30.12,SE,146,5.0,7.0,74,0.00,,---,0.00,VWS V14.01,2013-04-03 17:15:00,
2013-04-03 10:20:00,64.4,55.9,30.13,WNW,287,1.0,7.0,74,0.00,,---,0.00,VWS V14.01,2013-04-03 17:20:00,
2013-04-03 10:25:00,65.1,55.9,30.13,West,281,0.0,7.0,72,0.00,,---,0.00,VWS V14.01,2013-04-03 17:25:00,
2013-04-03 10:30:00,65.2,55.6,30.13,SSW,208,0.0,4.0,71,0.00,,---,0.00,VWS V14.01,2013-04-03 17:30:00,
2013-04-03 10:36:00,65.7,56.0,30.12,South,186,2.0,6.0,71,0.00,,---,0.00,VWS V14.01,2013-04-03 17:36:00,
2013-04-03 10:41:00,65.7,56.0,30.12,SSE,152,1.0,6.0,71,0.00,,---,0.00,VWS V14.01,2013-04-03 17:41:00,
2013-04-03 10:46:00,66.2,56.5,30.12,WNW,286,0.0,6.0,71,0.00,,---,0.00,VWS V14.01,2013-04-03 17:46:00,
2013-04-03 10:51:00,66.8,55.9,30.12,SSW,195,3.0,6.0,68,0.00,,---,0.00,VWS V14.01,2013-04-03 17:51:00,
2013-04-03 10:56:00,67.3,56.8,30.12,SW,231,1.0,6.0,69,0.00,,---,0.00,VWS V14.01,2013-04-03 17:56:00,
2013-04-03 11:01:00,67.7,56.4,30.12,North,10,0.0,1.0,67,0.00,,---,0.00,VWS V14.01,2013-04-03 18:01:00,
2013-04-03 11:06:00,67.8,56.0,30.12,ESE,112,2.0,6.0,66,0.00,,---,0.00,VWS V14.01,2013-04-03 18:06:00,
2013-04-03 11:11:00,68.3,56.1,30.12,SE,124,2.0,6.0,65,0.00,,---,0.00,VWS V14.01,2013-04-03 18:11:00,
2013-04-03 11:16:00,69.2,56.5,30.12,SE,133,1.0,6.0,64,0.00,,---,0.00,VWS V14.01,2013-04-03 18:16:00,
2013-04-03 11:21:00,69.7,57.0,30.12,ESE,103,0.0,6.0,64,0.00,,---,0.00,VWS V14.01,2013-04-03 18:21:00,
2013-04-03 11:27:00,69.4,56.7,30.12,ESE,106,0.0,8.0,64,0.00,,---,0.00,VWS V14.01,2013-04-03 18:27:00,
2013-04-03 11:32:00,70.0,56.4,30.12,SW,217,0.0,2.0,62,0.00,,---,0.00,VWS V14.01,2013-04-03 18:32:00,
2013-04-03 11:37:00,70.0,56.0,30.11,West,273,2.0,3.0,61,0.00,,---,0.00,VWS V14.01,2013-04-03 18:37:00,
2013-04-03 11:42:00,70.3,56.2,30.11,WSW,244,1.0,4.0,61,0.00,,---,0.00,VWS V14.01,2013-04-03 18:42:00,
2013-04-03 11:47:00,71.1,56.5,30.11,WSW,238,0.0,4.0,60,0.00,,---,0.00,VWS V14.01,2013-04-03 18:47:00,
2013-04-03 11:52:00,71.6,56.5,30.11,South,184,4.0,5.0,59,0.00,,---,0.00,VWS V14.01,2013-04-03 18:52:00,
2013-04-03 11:57:00,70.8,55.8,30.10,SSE,167,7.0,7.0,59,0.00,,---,0.00,VWS V14.01,2013-04-03 18:57:00,
2013-04-03 12:02:00,70.2,55.7,30.10,SSE,157,1.0,6.0,60,0.00,,---,0.00,VWS V14.01,2013-04-03 19:02:00,
2013-04-03 12:07:00,71.0,56.4,30.10,SSE,159,4.0,7.0,60,0.00,,---,0.00,VWS V14.01,2013-04-03 19:07:00,
2013-04-03 12:12:00,71.8,56.2,30.09,South,182,0.0,7.0,58,0.00,,---,0.00,VWS V14.01,2013-04-03 19:12:00,
2013-04-03 12:17:00,72.5,56.4,30.09,East,86,0.0,9.0,57,0.00,,---,0.00,VWS V14.01,2013-04-03 19:17:00,
2013-04-03 12:22:00,73.0,55.9,30.09,South,170,0.0,9.0,55,0.00,,---,0.00,VWS V14.01,2013-04-03 19:22:00,
2013-04-03 12:27:00,73.1,56.5,30.08,SE,126,0.0,9.0,56,0.00,,---,0.00,VWS V14.01,2013-04-03 19:27:00,
2013-04-03 12:32:00,74.1,56.4,30.08,SE,134,0.0,4.0,54,0.00,,---,0.00,VWS V14.01,2013-04-03 19:32:00,
2013-04-03 12:37:00,73.7,56.0,30.08,SE,134,1.0,8.0,54,0.00,,---,0.00,VWS V14.01,2013-04-03 19:37:00,
2013-04-03 12:42:00,73.9,56.2,30.08,SW,224,0.0,8.0,54,0.00,,---,0.00,VWS V14.01,2013-04-03 19:42:00,
2013-04-03 12:47:00,74.0,56.3,30.08,South,175,4.0,8.0,54,0.00,,---,0.00,VWS V14.01,2013-04-03 19:47:00,
2013-04-03 12:52:00,74.4,56.2,30.08,SSE,163,4.0,8.0,53,0.00,,---,0.00,VWS V14.01,2013-04-03 19:52:00,
2013-04-03 12:57:00,74.8,56.0,30.08,South,180,2.0,8.0,52,0.00,,---,0.00,VWS V14.01,2013-04-03 19:57:00,
2013-04-03 13:02:00,75.2,55.8,30.08,SSE,160,1.0,5.0,51,0.00,,---,0.00,VWS V14.01,2013-04-03 20:02:00,
2013-04-03 13:07:00,75.8,55.9,30.08,WSW,252,2.0,6.0,50,0.00,,---,0.00,VWS V14.01,2013-04-03 20:07:00,
2013-04-03 13:12:00,76.0,56.0,30.08,ESE,113,4.0,6.0,50,0.00,,---,0.00,VWS V14.01,2013-04-03 20:12:00,
2013-04-03 13:17:00,75.9,55.4,30.08,SSE,165,7.0,8.0,49,0.00,,---,0.00,VWS V14.01,2013-04-03 20:17:00,
2013-04-03 13:22:00,76.0,55.5,30.08,SSE,166,0.0,8.0,49,0.00,,---,0.00,VWS V14.01,2013-04-03 20:22:00,
2013-04-03 13:27:00,75.4,54.9,30.08,SE,126,7.0,11.0,49,0.00,,---,0.00,VWS V14.01,2013-04-03 20:27:00,
2013-04-03 13:32:00,75.5,55.0,30.08,West,269,4.0,6.0,49,0.00,,---,0.00,VWS V14.01,2013-04-03 20:32:00,
2013-04-03 13:37:00,76.0,54.3,30.08,WNW,298,1.0,6.0,47,0.00,,---,0.00,VWS V14.01,2013-04-03 20:37:00,
2013-04-03 13:42:00,76.3,54.6,30.08,West,279,2.0,7.0,47,0.00,,---,0.00,VWS V14.01,2013-04-03 20:42:00,
2013-04-03 13:47:00,76.0,53.8,30.08,SSW,204,2.0,7.0,46,0.00,,---,0.00,VWS V14.01,2013-04-03 20:47:00,
2013-04-03 13:52:00,75.8,53.6,30.08,SE,146,4.0,7.0,46,0.00,,---,0.00,VWS V14.01,2013-04-03 20:52:00,
2013-04-03 13:57:00,76.1,53.2,30.07,South,177,0.0,9.0,45,0.00,,---,0.00,VWS V14.01,2013-04-03 20:57:00,
2013-04-03 14:02:00,76.6,53.7,30.07,ESE,122,2.0,8.0,45,0.00,,---,0.00,VWS V14.01,2013-04-03 21:02:00,
2013-04-03 14:07:00,77.0,54.1,30.07,SW,223,0.0,8.0,45,0.00,,---,0.00,VWS V14.01,2013-04-03 21:07:00,
2013-04-03 14:12:00,77.6,53.4,30.07,SSW,192,1.0,8.0,43,0.00,,---,0.00,VWS V14.01,2013-04-03 21:12:00,
2013-04-03 14:17:00,78.1,53.2,30.07,WSW,249,1.0,8.0,42,0.00,,---,0.00,VWS V14.01,2013-04-03 21:17:00,
2013-04-03 14:22:00,78.3,55.8,30.07,South,190,7.0,8.0,46,0.00,,---,0.00,VWS V14.01,2013-04-03 21:22:00,
2013-04-03 14:27:00,78.3,57.0,30.07,West,262,2.0,8.0,48,0.00,,---,0.00,VWS V14.01,2013-04-03 21:27:00,
2013-04-03 14:32:00,78.1,57.4,30.07,NW,309,2.0,8.0,49,0.00,,---,0.00,VWS V14.01,2013-04-03 21:32:00,
2013-04-03 14:37:00,77.6,57.0,30.07,SSW,211,2.0,8.0,49,0.00,,---,0.00,VWS V14.01,2013-04-03 21:37:00,
2013-04-03 14:42:00,77.1,57.0,30.07,West,262,1.0,11.0,50,0.00,,---,0.00,VWS V14.01,2013-04-03 21:42:00,
2013-04-03 14:47:00,76.2,57.3,30.06,SE,130,0.0,13.0,52,0.00,,---,0.00,VWS V14.01,2013-04-03 21:47:00,
2013-04-03 14:52:00,76.3,57.9,30.06,SSE,164,0.0,13.0,53,0.00,,---,0.00,VWS V14.01,2013-04-03 21:52:00,
2013-04-03 14:57:00,76.8,57.3,30.06,South,177,1.0,13.0,51,0.00,,---,0.00,VWS V14.01,2013-04-03 21:57:00,
2013-04-03 15:02:00,76.2,57.3,30.06,SSE,162,4.0,8.0,52,0.00,,---,0.00,VWS V14.01,2013-04-03 22:02:00,
2013-04-03 15:07:00,75.9,57.6,30.06,SSE,163,5.0,8.0,53,0.00,,---,0.00,VWS V14.01,2013-04-03 22:07:00,
2013-04-03 15:12:00,76.1,57.8,30.06,SSW,211,0.0,8.0,53,0.00,,---,0.00,VWS V14.01,2013-04-03 22:12:00,
2013-04-03 15:17:00,76.3,57.4,30.06,SSW,195,1.0,9.0,52,0.00,,---,0.00,VWS V14.01,2013-04-03 22:17:00,
2013-04-03 15:22:00,76.4,57.5,30.06,SE,142,6.0,9.0,52,0.00,,---,0.00,VWS V14.01,2013-04-03 22:22:00,
2013-04-03 15:27:00,76.1,57.2,30.06,SE,140,5.0,11.0,52,0.00,,---,0.00,VWS V14.01,2013-04-03 22:27:00,
2013-04-03 15:32:00,75.8,56.9,30.05,West,281,0.0,9.0,52,0.00,,---,0.00,VWS V14.01,2013-04-03 22:32:00,
2013-04-03 15:37:00,76.6,56.6,30.05,SSE,160,1.0,9.0,50,0.00,,---,0.00,VWS V14.01,2013-04-03 22:37:00,
2013-04-03 15:42:00,77.1,56.5,30.05,SSW,205,0.0,9.0,49,0.00,,---,0.00,VWS V14.01,2013-04-03 22:42:00,
2013-04-03 15:47:00,77.3,55.5,30.05,West,279,3.0,9.0,47,0.00,,---,0.00,VWS V14.01,2013-04-03 22:47:00,
2013-04-03 15:52:00,77.4,55.6,30.05,SW,217,0.0,9.0,47,0.00,,---,0.00,VWS V14.01,2013-04-03 22:52:00,
2013-04-03 15:57:00,77.8,55.4,30.04,West,271,1.0,9.0,46,0.00,,---,0.00,VWS V14.01,2013-04-03 22:57:00,
2013-04-03 16:02:00,77.9,53.6,30.04,West,263,0.0,5.0,43,0.00,,---,0.00,VWS V14.01,2013-04-03 23:02:00,
2013-04-03 16:07:00,77.8,53.5,30.04,NNW,330,0.0,6.0,43,0.00,,---,0.00,VWS V14.01,2013-04-03 23:07:00,
2013-04-03 16:12:00,77.8,52.9,30.04,SE,125,2.0,6.0,42,0.00,,---,0.00,VWS V14.01,2013-04-03 23:12:00,
2013-04-03 16:17:00,77.9,53.0,30.04,West,277,3.0,6.0,42,0.00,,---,0.00,VWS V14.01,2013-04-03 23:17:00,
2013-04-03 16:22:00,78.0,53.7,30.04,South,180,0.0,6.0,43,0.00,,---,0.00,VWS V14.01,2013-04-03 23:22:00,
2013-04-03 16:27:00,77.6,53.4,30.03,ESE,117,0.0,6.0,43,0.00,,---,0.00,VWS V14.01,2013-04-03 23:27:00,
2013-04-03 16:32:00,78.0,53.7,30.03,SSW,211,1.0,4.0,43,0.00,,---,0.00,VWS V14.01,2013-04-03 23:32:00,
2013-04-03 16:37:00,77.8,54.2,30.03,South,187,1.0,5.0,44,0.00,,---,0.00,VWS V14.01,2013-04-03 23:37:00,
2013-04-03 16:42:00,77.6,54.0,30.03,West,264,1.0,5.0,44,0.00,,---,0.00,VWS V14.01,2013-04-03 23:42:00,
2013-04-03 16:47:00,77.7,54.7,30.03,WSW,245,0.0,5.0,45,0.00,,---,0.00,VWS V14.01,2013-04-03 23:47:00,
2013-04-03 16:52:00,77.7,54.7,30.03,South,178,1.0,6.0,45,0.00,,---,0.00,VWS V14.01,2013-04-03 23:52:00,
2013-04-03 16:57:00,77.3,54.3,30.03,West,269,2.0,6.0,45,0.00,,---,0.00,VWS V14.01,2013-04-03 23:57:00,
2013-04-03 17:02:00,77.1,54.8,30.03,South,183,0.0,4.0,46,0.00,,---,0.00,VWS V14.01,2013-04-04 00:02:00,
2013-04-03 17:07:00,76.9,54.6,30.03,WNW,290,0.0,4.0,46,0.00,,---,0.00,VWS V14.01,2013-04-04 00:07:00,
2013-04-03 17:12:00,76.7,53.8,30.03,SW,234,0.0,5.0,45,0.00,,---,0.00,VWS V14.01,2013-04-04 00:12:00,
2013-04-03 17:17:00,76.5,54.2,30.03,SSE,157,0.0,5.0,46,0.00,,---,0.00,VWS V14.01,2013-04-04 00:17:00,
2013-04-03 17:22:00,76.1,53.2,30.03,West,264,0.0,5.0,45,0.00,,---,0.00,VWS V14.01,2013-04-04 00:22:00,
2013-04-03 17:27:00,75.7,53.5,30.03,West,265,0.0,5.0,46,0.00,,---,0.00,VWS V14.01,2013-04-04 00:27:00,
2013-04-03 17:32:00,75.4,52.6,30.03,West,268,0.0,4.0,45,0.00,,---,0.00,VWS V14.01,2013-04-04 00:32:00,
2013-04-03 17:37:00,75.1,52.3,30.03,NE,45,0.0,4.0,45,0.00,,---,0.00,VWS V14.01,2013-04-04 00:37:00,
2013-04-03 17:42:00,74.8,51.5,30.02,West,275,0.0,4.0,44,0.00,,---,0.00,VWS V14.01,2013-04-04 00:42:00,
2013-04-03 17:47:00,74.5,51.2,30.02,West,267,1.0,5.0,44,0.00,,---,0.00,VWS V14.01,2013-04-04 00:47:00,
2013-04-03 17:52:00,74.4,51.1,30.02,South,182,0.0,5.0,44,0.00,,---,0.00,VWS V14.01,2013-04-04 00:52:00,
2013-04-03 17:57:00,74.1,51.4,30.03,South,186,0.0,5.0,45,0.00,,---,0.00,VWS V14.01,2013-04-04 00:57:00,
2013-04-03 18:02:00,73.9,51.2,30.03,West,261,0.0,1.0,45,0.00,,---,0.00,VWS V14.01,2013-04-04 01:02:00,
2013-04-03 18:07:00,73.7,51.7,30.03,ENE,63,0.0,2.0,46,0.00,,---,0.00,VWS V14.01,2013-04-04 01:07:00,
2013-04-03 18:12:00,73.4,52.0,30.03,West,281,0.0,4.0,47,0.00,,---,0.00,VWS V14.01,2013-04-04 01:12:00,
2013-04-03 18:17:00,72.7,54.1,30.03,SSE,150,4.0,11.0,52,0.00,,---,0.00,VWS V14.01,2013-04-04 01:17:00,
2013-04-03 18:22:00,71.5,55.5,30.03,South,191,0.0,11.0,57,0.00,,---,0.00,VWS V14.01,2013-04-04 01:22:00,
2013-04-03 18:27:00,70.7,55.7,30.04,SSE,150,0.0,11.0,59,0.00,,---,0.00,VWS V14.01,2013-04-04 01:27:00,
2013-04-03 18:32:00,70.2,55.7,30.04,SE,132,1.0,4.0,60,0.00,,---,0.00,VWS V14.01,2013-04-04 01:32:00,
2013-04-03 18:37:00,69.5,55.5,30.04,SE,142,0.0,10.0,61,0.00,,---,0.00,VWS V14.01,2013-04-04 01:37:00,
2013-04-03 18:42:00,69.3,55.7,30.04,SSE,149,1.0,10.0,62,0.00,,---,0.00,VWS V14.01,2013-04-04 01:42:00,
2013-04-03 18:47:00,68.7,55.6,30.04,SSE,159,0.0,10.0,63,0.00,,---,0.00,VWS V14.01,2013-04-04 01:47:00,
2013-04-03 18:52:00,68.5,55.9,30.04,SSW,198,0.0,10.0,64,0.00,,---,0.00,VWS V14.01,2013-04-04 01:52:00,
2013-04-03 18:57:00,68.2,55.6,30.04,WSW,250,0.0,10.0,64,0.00,,---,0.00,VWS V14.01,2013-04-04 01:57:00,
2013-04-03 19:02:00,67.9,55.7,30.05,SSE,151,1.0,2.0,65,0.00,,---,0.00,VWS V14.01,2013-04-04 02:02:00,
2013-04-03 19:07:00,67.6,55.4,30.05,SSE,160,0.0,3.0,65,0.00,,---,0.00,VWS V14.01,2013-04-04 02:07:00,
2013-04-03 19:12:00,67.2,55.5,30.05,WNW,294,1.0,3.0,66,0.00,,---,0.00,VWS V14.01,2013-04-04 02:12:00,
2013-04-03 19:17:00,66.5,54.8,30.05,West,275,1.0,3.0,66,0.00,,---,0.00,VWS V14.01,2013-04-04 02:17:00,
2013-04-03 19:22:00,65.7,54.5,30.05,WSW,247,0.0,4.0,67,0.00,,---,0.00,VWS V14.01,2013-04-04 02:22:00,
2013-04-03 19:27:00,65.1,54.3,30.05,WSW,248,1.0,4.0,68,0.00,,---,0.00,VWS V14.01,2013-04-04 02:27:00,
2013-04-03 19:32:00,64.5,54.5,30.05,SSW,209,0.0,2.0,70,0.00,,---,0.00,VWS V14.01,2013-04-04 02:32:00,
2013-04-03 19:37:00,64.0,54.4,30.05,West,273,0.0,3.0,71,0.00,,---,0.00,VWS V14.01,2013-04-04 02:37:00,
2013-04-03 19:42:00,63.7,54.5,30.06,West,273,0.0,3.0,72,0.00,,---,0.00,VWS V14.01,2013-04-04 02:42:00,
2013-04-03 19:47:00,63.3,54.5,30.06,West,272,0.0,3.0,73,0.00,,---,0.00,VWS V14.01,2013-04-04 02:47:00,
2013-04-03 19:52:00,62.9,54.5,30.06,West,272,0.0,3.0,74,0.00,,---,0.00,VWS V14.01,2013-04-04 02:52:00,
2013-04-03 19:57:00,62.6,54.6,30.07,SW,236,0.0,3.0,75,0.00,,---,0.00,VWS V14.01,2013-04-04 02:57:00,
2013-04-03 20:02:00,62.3,54.7,30.07,WSW,240,0.0,0.0,76,0.00,,---,0.00,VWS V14.01,2013-04-04 03:02:00,
2013-04-03 20:07:00,62.0,54.4,30.07,WSW,239,0.0,0.0,76,0.00,,---,0.00,VWS V14.01,2013-04-04 03:07:00,
2013-04-03 20:12:00,61.6,54.3,30.07,WSW,240,0.0,0.0,77,0.00,,---,0.00,VWS V14.01,2013-04-04 03:12:00,
2013-04-03 20:17:00,61.3,54.4,30.07,WSW,239,0.0,0.0,78,0.00,,---,0.00,VWS V14.01,2013-04-04 03:17:00,
2013-04-03 20:22:00,61.0,54.5,30.08,WSW,239,0.0,0.0,79,0.00,,---,0.00,VWS V14.01,2013-04-04 03:22:00,
2013-04-03 20:27:00,60.7,54.2,30.08,WSW,239,0.0,0.0,79,0.00,,---,0.00,VWS V14.01,2013-04-04 03:27:00,
2013-04-03 20:32:00,60.5,54.3,30.08,WSW,239,0.0,0.0,80,0.00,,---,0.00,VWS V14.01,2013-04-04 03:32:00,
2013-04-03 20:37:00,60.3,54.5,30.08,WSW,239,0.0,0.0,81,0.00,,---,0.00,VWS V14.01,2013-04-04 03:37:00,
2013-04-03 20:42:00,60.2,54.4,30.08,SW,233,0.0,0.0,81,0.00,,---,0.00,VWS V14.01,2013-04-04 03:42:00,
2013-04-03 20:47:00,60.0,54.5,30.09,SW,232,0.0,1.0,82,0.00,,---,0.00,VWS V14.01,2013-04-04 03:47:00,
2013-04-03 20:52:00,59.8,54.3,30.09,SW,227,0.0,1.0,82,0.00,,---,0.00,VWS V14.01,2013-04-04 03:52:00,
2013-04-03 20:57:00,59.7,54.5,30.09,SW,232,0.0,1.0,83,0.00,,---,0.00,VWS V14.01,2013-04-04 03:57:00,
2013-04-03 21:00:00,59.6,54.4,30.09,SW,232,0.0,0.0,83,0.00,,---,0.00,VWS V14.01,2013-04-04 04:00:00,
2013-04-03 21:05:00,59.4,54.2,30.10,SW,232,0.0,0.0,83,0.00,,---,0.00,VWS V14.01,2013-04-04 04:05:00,
2013-04-03 21:10:00,59.1,54.3,30.10,SW,232,0.0,0.0,84,0.00,,---,0.00,VWS V14.01,2013-04-04 04:10:00,
2013-04-03 21:15:00,59.0,54.2,30.10,SW,232,0.0,1.0,84,0.00,,---,0.00,VWS V14.01,2013-04-04 04:15:00,
2013-04-03 21:20:00,58.8,54.0,30.10,SSW,211,0.0,1.0,84,0.00,,---,0.00,VWS V14.01,2013-04-04 04:20:00,
2013-04-03 21:25:00,58.7,54.2,30.10,South,175,0.0,1.0,85,0.00,,---,0.00,VWS V14.01,2013-04-04 04:25:00,
2013-04-03 21:30:00,58.5,54.0,30.10,South,175,0.0,0.0,85,0.00,,---,0.00,VWS V14.01,2013-04-04 04:30:00,
2013-04-03 21:35:00,58.3,54.1,30.10,South,175,0.0,1.0,86,0.00,,---,0.00,VWS V14.01,2013-04-04 04:35:00,
2013-04-03 21:40:00,58.2,54.0,30.10,South,175,0.0,1.0,86,0.00,,---,0.00,VWS V14.01,2013-04-04 04:40:00,
2013-04-03 21:45:00,58.0,53.8,30.10,South,175,0.0,1.0,86,0.00,,---,0.00,VWS V14.01,2013-04-04 04:45:00,
2013-04-03 21:50:00,57.9,54.1,30.11,South,176,0.0,1.0,87,0.00,,---,0.00,VWS V14.01,2013-04-04 04:50:00,
2013-04-03 21:55:00,57.7,53.9,30.11,WNW,292,0.0,1.0,87,0.00,,---,0.00,VWS V14.01,2013-04-04 04:55:00,
2013-04-03 22:00:00,57.6,53.8,30.11,WNW,289,0.0,1.0,87,0.00,,---,0.00,VWS V14.01,2013-04-04 05:00:00,
2013-04-03 22:05:00,57.5,54.0,30.11,West,267,0.0,3.0,88,0.00,,---,0.00,VWS V14.01,2013-04-04 05:05:00,
2013-04-03 22:10:00,57.4,53.9,30.11,West,279,0.0,3.0,88,0.00,,---,0.00,VWS V14.01,2013-04-04 05:10:00,
2013-04-03 22:15:00,57.3,54.1,30.11,WNW,288,0.0,3.0,89,0.00,,---,0.00,VWS V14.01,2013-04-04 05:15:00,
2013-04-03 22:20:00,57.3,54.1,30.12,WSW,257,0.0,3.0,89,0.00,,---,0.00,VWS V14.01,2013-04-04 05:20:00,
2013-04-03 22:25:00,57.3,54.1,30.12,WSW,257,0.0,3.0,89,0.00,,---,0.00,VWS V14.01,2013-04-04 05:25:00,
2013-04-03 22:30:00,57.3,54.1,30.12,West,267,0.0,2.0,89,0.00,,---,0.00,VWS V14.01,2013-04-04 05:30:00,
2013-04-03 22:35:00,57.2,54.0,30.12,WSW,254,0.0,2.0,89,0.00,,---,0.00,VWS V14.01,2013-04-04 05:35:00,
2013-04-03 22:40:00,57.2,54.0,30.12,WSW,257,0.0,2.0,89,0.00,,---,0.00,VWS V14.01,2013-04-04 05:40:00,
2013-04-03 22:45:00,57.2,54.0,30.12,WSW,254,0.0,2.0,89,0.00,,---,0.00,VWS V14.01,2013-04-04 05:45:00,
2013-04-03 22:50:00,57.2,54.0,30.12,WSW,254,0.0,2.0,89,0.00,,---,0.00,VWS V14.01,2013-04-04 05:50:00,
2013-04-03 22:55:00,57.1,53.9,30.12,WSW,254,0.0,2.0,89,0.00,,---,0.00,VWS V14.01,2013-04-04 05:55:00,
2013-04-03 23:00:00,57.1,54.2,30.12,WSW,254,0.0,0.0,90,0.00,,---,0.00,VWS V14.01,2013-04-04 06:00:00,
2013-04-03 23:05:00,57.1,54.2,30.12,WSW,254,0.0,0.0,90,0.00,,---,0.00,VWS V14.01,2013-04-04 06:05:00,
2013-04-03 23:10:00,57.1,54.2,30.13,SSE,153,0.0,2.0,90,0.00,,---,0.00,VWS V14.01,2013-04-04 06:10:00,
2013-04-03 23:15:00,57.1,54.2,30.13,SSE,153,0.0,2.0,90,0.00,,---,0.00,VWS V14.01,2013-04-04 06:15:00,
2013-04-03 23:20:00,57.1,53.9,30.13,NNE,24,0.0,2.0,89,0.00,,---,0.00,VWS V14.01,2013-04-04 06:20:00,
2013-04-03 23:25:00,57.0,54.1,30.13,NNE,24,0.0,2.0,90,0.00,,---,0.00,VWS V14.01,2013-04-04 06:25:00,
2013-04-03 23:30:00,57.0,54.1,30.13,NNE,24,0.0,1.0,90,0.00,,---,0.00,VWS V14.01,2013-04-04 06:30:00,
2013-04-03 23:35:00,56.9,54.0,30.13,NNE,24,0.0,1.0,90,0.00,,---,0.00,VWS V14.01,2013-04-04 06:35:00,
2013-04-03 23:40:00,56.9,54.0,30.13,NNE,24,0.0,1.0,90,0.00,,---,0.00,VWS V14.01,2013-04-04 06:40:00,
2013-04-03 23:45:00,56.9,54.0,30.13,NNE,24,0.0,1.0,90,0.00,,---,0.00,VWS V14.01,2013-04-04 06:45:00,
2013-04-03 23:50:00,56.9,54.0,30.13,NNE,24,0.0,1.0,90,0.00,,---,0.00,VWS V14.01,2013-04-04 06:50:00,
2013-04-03 23:55:00,56.8,53.9,30.14,NNE,24,0.0,1.0,90,0.00,,---,0.00,VWS V14.01,2013-04-04 06:55:00,